sat.trackr.live / text

‹ back to catalog

STARLINK-30142

NORAD 56836 · 2023-079P

PAYLOAD ACTIVE UNKNOWN

§ Identity

Operator
Country
US
Launch date
2023-06-04
Launch site
AFETR
Launch vehicle
Mass (kg)
RCS (m²)

Purposes: comms

External: N2YO · Heavens-Above · Gunter

§ Orbital elements

Epoch: 2026-09-20T21:59:29.608224Z

Period
94.27 min
Inclination
43.0011°
Eccentricity
0.0001295
Mean motion
15.27580948 rev/d
Perigee alt
482.2 km
Apogee alt
483.9 km
Semi-major
6,861.2 km
B*
3.4284e-5
RAAN
81.2754°
Arg perigee
270.2659°
Mean anomaly
89.8044°
Rev number
18,278

§ Raw data

STARLINK-301421 56836U 23079P   26263.91631491  .00000681  00000+0  34284-4 0  99912 56836  43.0011  81.2754 0001295 270.2659  89.8044 15.27580948182782

JSON: /api/v1/satellites/56836 · /tle

For live sub-satellite position, see the globe view (requires WebGL).

§ Visibility from observer

Set your observer location to see the next 7 days of passes ≥ 10°. The values pass through the URL so the page stays shareable.

No JS? Fill the form by hand. The geolocation button needs JavaScript.